Home   Weather   Thousand Oaks   Past weeks

Flag for USA Past Weather in Thousand Oaks, California, USA — Yesterday and Last 2 Weeks

60 °F


Feels Like: 60 °F
Forecast: 57 / 75 °F
Wind: 3 mph from Southeast

Location: Camarillo Airport

Current Time: Oct 23, 2016 at 9:12:36 AM

Latest Report: Oct 23, 2016 at 8:55 AM

Visibility: 6 mi

Pressure: 30.02 "Hg

Humidity: 90%

Dew Point: 57 °F

Location of Thousand OaksLocation

Past Weather in Thousand Oaks — Graph


Thousand Oaks Temperature Yesterday

Maximum temperature yesterday: 73 °F (at 10:55 AM)
Minimum temperature yesterday: 52 °F (at 4:55 AM)
Average temperature yesterday: 62 °F

High & Low Weather Summary for the Past Weeks

High97 °F (Oct 20, 1:55 PM)100% (Oct 14, 2:55 AM)30.12 "Hg (Oct 14, 2:55 AM)
Low51 °F (Oct 13, 4:55 AM)5% (Oct 20, 1:55 PM)29.83 "Hg (Oct 21, 5:55 PM)
Average67 °F66%29.98 "Hg
* Reported Oct 8 7:55 AM — Oct 23 7:55 AM, Thousand Oaks, Weather by CustomWeather, © 2016

Note: Actual official high and low records may vary slightly from our data, if they occured in-between our weather recording intervals... More about our weather records


Thousand Oaks Weather History for the Previous 24 Hours

Scroll right to see more
Time TempWeatherWind HumidityBarometerVisibility
7:55 AM
Sun, Oct 23
58 °FFog.5 mph90%29.99 "Hg4 mi
6:55 AM58 °FFog.5 mph93%29.98 "Hg4 mi
5:55 AM59 °FFog.No wind93%29.98 "Hg4 mi
4:55 AM59 °FFog.3 mph93%29.96 "Hg5 mi
3:55 AM60 °FLow clouds.No wind90%29.96 "Hg7 mi
2:55 AM61 °FLow clouds.3 mph90%29.96 "Hg9 mi
1:55 AM56 °FFog.3 mph93%29.97 "Hg6 mi
12:55 AM55 °FFog.No wind90%29.94 "Hg5 mi
11:55 PM
Sat, Oct 22
56 °FFog.No wind93%29.93 "Hg3 mi
10:55 PM57 °FFog.No wind96%29.93 "Hg5 mi
9:55 PM59 °FFog.No wind90%29.91 "Hg6 mi
8:55 PM60 °FClear.No wind90%29.90 "Hg7 mi
7:55 PM61 °FClear.No wind90%29.90 "Hg9 mi
6:55 PM62 °FClear.3 mph86%29.89 "Hg10 mi
5:55 PM63 °FSunny.5 mph84%29.88 "Hg10 mi
4:55 PM67 °FSunny.5 mph73%29.88 "Hg10 mi
3:55 PM68 °FSunny.8 mph73%29.88 "Hg10 mi
2:55 PM70 °FSunny.10 mph71%29.88 "Hg10 mi
1:55 PM71 °FSunny.12 mph71%29.88 "Hg7 mi
12:55 PM73 °FSunny.9 mph66%29.89 "Hg9 mi
11:55 AM72 °FSunny.9 mph59%29.90 "Hg10 mi
10:55 AM73 °FSunny.3 mph41%29.90 "Hg10 mi
9:55 AM70 °FSunny.No wind44%29.91 "Hg10 mi
Weather by CustomWeather, © 2016

See weather overviewHow to use our weather pages